Flag for Austria Weather past 2 weeks in Zell am See, Salzburg, Austria

32 °F


Feels Like: 29 °F
Forecast: 35 / 51 °F
Wind: 3 mph from South

Location: Salzburg-Flughafen

Current Time: Nov 29, 2015 at 1:39:47 AM

Latest Report: Nov 29, 2015 at 12:50 AM

Visibility: N/A

Pressure: 30.18 "Hg (27.44 "Hg at 761m altitude)

Humidity: 93%

Dew point: 30 °F

Location of Zell am SeeLocation

Historic Weather in Zell am See — Graph


Zell am See temperature yesterday

Maximum temperature yesterday: 39 °F (at 11:50 AM)
Minimum temperature yesterday: 34 °F (at 12:50 AM)
Average temperature yesterday: 36 °F

Past Weeks' High & Low Weather Summary

High72 °F (Nov 15, 1:50 PM)100% (Nov 18, 11:50 PM)30.45 "Hg (Nov 18, 11:50 PM)
Low25 °F (Nov 24, 12:20 AM)28% (Nov 15, 9:20 PM)29.42 "Hg (Nov 21, 3:20 PM)
Average42 °F77%29.98 "Hg
* Reported Nov 13 11:20 PM — Nov 28 11:50 PM, Zell am See, Weather by CustomWeather, © 2015

Note: Actual official high and low records may vary slightly from our data, if they occured in-between our weather recording intervals... More about our weather records


Zell am See weather history for previous 24 hours

Time TempWeatherWind HumidityBarometerVisibility
11:50 PM
Sat, Nov 28
36 °FPassing clouds.9 mph75%30.18 "HgN/A
10:50 PM37 °FPassing clouds.14 mph70%30.18 "HgN/A
10:20 PM37 °FPassing clouds.9 mph75%30.18 "HgN/A
9:20 PM37 °FSprinkles. Partly cloudy.13 mph81%30.15 "HgN/A
8:50 PM37 °FPartly cloudy.2 mph87%30.15 "HgN/A
8:20 PM36 °FPartly cloudy.3 mph93%30.12 "HgN/A
7:50 PM37 °FSprinkles. Partly cloudy.6 mph87%30.12 "HgN/A
7:20 PM37 °FPassing clouds.8 mph87%30.12 "HgN/A
6:50 PM37 °FPassing clouds.9 mph87%30.09 "HgN/A
6:20 PM37 °FLight rain. Passing clouds.6 mph87%30.09 "HgN/A
5:50 PM37 °FLight rain. Passing clouds.6 mph87%30.09 "HgN/A
5:20 PM37 °FLight rain. Passing clouds.7 mph87%30.09 "HgN/A
4:50 PM39 °FSprinkles. Passing clouds.9 mph81%30.07 "HgN/A
4:20 PM39 °FSprinkles. Partly cloudy.10 mph81%30.04 "HgN/A
3:50 PM37 °FBroken clouds.6 mph87%30.04 "HgN/A
3:20 PM34 °FLight rain. Broken clouds.3 mph100%30.01 "HgN/A
2:50 PM34 °FLight rain. Broken clouds.5 mph100%30.01 "Hg5 mi
2:20 PM36 °FLight rain. Broken clouds.2 mph93%29.98 "Hg5 mi
1:50 PM34 °FLight rain. Broken clouds.2 mph93%29.98 "Hg3 mi
1:20 PM36 °FLight snow. Broken clouds.6 mph87%29.98 "Hg4 mi
12:50 PM36 °FLight snow. Partly sunny.9 mph81%29.95 "HgN/A
12:20 PM37 °FPartly sunny.3 mph65%29.95 "HgN/A
11:50 AM39 °FPartly sunny.9 mph65%29.92 "HgN/A
11:20 AM37 °FScattered clouds.2 mph75%29.92 "HgN/A
10:50 AM37 °FPassing clouds.10 mph75%29.92 "HgN/A
10:20 AM37 °FSunny.7 mph75%29.92 "Hg10 mi
9:50 AM36 °FPassing clouds.5 mph75%29.92 "HgN/A
9:20 AM34 °FPassing clouds.1 mph75%29.92 "HgN/A
8:50 AM34 °FScattered clouds.5 mph81%29.92 "HgN/A
8:20 AM34 °FPartly sunny.6 mph81%29.92 "HgN/A
7:50 AM34 °FPartly sunny.3 mph81%29.92 "HgN/A
7:20 AM34 °FPassing clouds.3 mph81%29.92 "HgN/A
6:50 AM34 °FPassing clouds.3 mph87%29.92 "HgN/A
6:20 AM34 °FPassing clouds.5 mph87%29.92 "HgN/A
5:50 AM34 °FPassing clouds.5 mph87%29.92 "HgN/A
5:20 AM34 °FPassing clouds.6 mph87%29.92 "Hg6 mi
4:50 AM34 °FPassing clouds.6 mph93%29.92 "Hg5 mi
4:20 AM34 °FPassing clouds.7 mph93%29.89 "Hg5 mi
3:50 AM34 °FPassing clouds.6 mph93%29.89 "Hg4 mi
3:20 AM34 °FPartly cloudy.5 mph93%29.92 "Hg4 mi
2:50 AM34 °FPassing clouds.3 mph93%29.92 "Hg4 mi
2:20 AM34 °FPassing clouds.1 mph93%29.92 "Hg4 mi
1:50 AM34 °FPartly cloudy.1 mph93%29.92 "Hg4 mi
1:20 AM34 °FPassing clouds.No wind93%29.92 "Hg5 mi
Weather by CustomWeather, © 2015

See weather overviewHow to use our weather pages